Orbital elements:
    P/2008 Q2 (Ory)
Epoch 2008 Oct. 21.0 TT = JDT 2454760.5
T 2008 Oct. 19.00684 TT                                 MPC
q   1.3822733            (2000.0)            P               Q
n   0.16890824     Peri.  329.58912     +0.86292661     -0.50358743
a   3.2411725      Node    60.70618     +0.47277140     +0.77525070
e   0.5735268      Incl.    2.75514     +0.17845129     +0.38129523
P   5.84
Residuals in seconds of arc
080827 185  0.0   0.1-    080909 900  0.4+  0.0     080929 B26  0.3-  0.1+
080827 185  0.4+  0.2-    080910 246  0.0   0.0     080930 704 (2.4-  0.9-)
080827 185  0.2-  0.6+    080910 246  0.1-  0.0     080930 704 (2.1-  0.6+)
080827 185  0.0   0.2-    080910 246  0.0   0.0     080930 704  1.3-  1.2+
080827 185  0.6+  0.0     080910 246  0.1-  0.0     080930 704  0.5-  0.4+
080827 185  0.1+  0.9+    080910 246  0.0   0.1-    080930 704  0.2-  0.9+
080827 185  0.2+  0.3+    080912 118  0.5+  0.5-    080930 415  0.4+  0.2+
080827 185  0.6-  0.8+    080912 118  0.0   0.2+    080930 415  0.5+  0.1+
080827 185  1.2-  0.6-    080912 461  0.6+  0.2+    081001 372  0.4+  0.1+
080827 185  0.4-  0.1-    080912 461  0.3+  0.3+    081001 372  0.6+  0.1+
080827 113  1.5-  0.2-    080912 461  0.6+  0.5+    081001 372  0.4+  0.1+
080828 113  0.8+  0.2+    080912 461  0.3+  0.2+    081001 900  0.2+  0.1-
080828 113  0.3-  0.5-    080914 J51  0.4-  0.6-    081001 900  0.2+  0.1-
080828 113  0.6-  0.4-    080914 J51  0.4+  0.7+    081002 J53  0.5+  0.0
080828 B18  1.0-  0.5+    080916 673  1.7+  0.5+    081002 J53  0.5+  0.0
080828 B18  0.7+  0.4+    080916 673  1.6+  0.5+    081002 J53  0.3+  0.1+
080828 B18  0.7+  0.3-    080916 673  1.1+  0.9-    081003 349  0.5+  0.3+
080828 B18  0.7+  0.3-    080916 673 (4.6+  0.3+)   081003 349  0.3+  0.3+
080828 204  0.1-  0.1-    080920 151  0.3+  0.1-    081003 349  0.4+  0.2+
080828 204  0.1-  0.1-    080920 151  0.3+  0.1-    081003 367  0.2-  0.2-
080828 H55  0.2+  0.2-    080920 151  0.5+  0.0     081003 367  0.1+  0.0
080828 H55  0.0   0.1-    080920 J28  0.8+  0.7-    081003 367  0.2+  0.1-
080828 H55  0.2+  0.1+    080920 J28  0.6+  0.3+    081004 204  0.1+  0.1-
080828 H36  0.6-  0.5-    080921 J47  0.6+  0.8+    081004 204  0.2+  0.3+
080828 H36  0.6-  0.3-    080921 J47  0.4+  0.3+    081004 J87  0.3+  0.0
080828 H36  0.7-  0.8-    080921 J47  0.7+  0.5+    081004 J87  0.5+  0.1+
080828 673  0.6+  0.5+    080921 J47  0.7+  0.7+    081004 J87  0.2+  0.1+
080828 673  0.7+  0.3+    080921 691  1.9-  0.3-    081004 204  0.3+  0.2+
080828 673  0.5+  0.5+    080921 691  1.7-  0.8-    081004 H06  0.1+  0.4-
080828 673  0.4+  0.7+    080921 691  1.3-  0.4-    081004 H06  0.2+  0.2-
080828 474  0.5+  0.2+    080921 703 (2.3-  1.0-)   081004 235  0.2+  0.2-
080828 474  0.0   0.1+    080921 703  1.9-  1.3-    081004 A71  0.5+  0.2-
080828 474  0.4+  0.2+    080921 703  1.0-  0.6-    081004 A71  0.6+  0.2-
080829 A77  0.8-  0.0     080921 703 (3.2-  1.8-)   081004 945  0.3+  0.6+
080829 A77  0.2+  0.0     080921 415  0.4+  0.0     081004 945  1.0+  0.8+
080829 A77  0.2-  0.3-    080921 415  0.5+  0.0     081004 A71  0.6+  0.2-
080829 122  0.1+  0.1-    080921 143  0.0   0.2-    081004 945  0.4+  0.5+
080829 122  0.4+  0.1-    080921 143  0.1-  0.3-    081004 945  0.5+  0.6+
080829 122  0.0   0.4-    080921 143  0.2+  0.3-    081004 945  0.7+  0.8+
080829 H45  0.4+  0.3+    080922 900  0.6+  0.0     081005 J53  0.4+  0.2-
080829 H45  0.0   0.3-    080922 352  0.2+  0.1-    081005 J53  0.1+  0.2-
080829 H45  0.8+  0.0     080922 900  0.4+  0.1+    081005 J53  0.3+  0.1-
080829 H45  0.5+  0.1+    080922 352  0.4+  0.1-    081005 A77  0.1-  0.4+
080829 H45  0.2+  0.0     080922 352  0.1+  0.2-    081005 A77  0.0   0.5+
080829 H45  0.4+  0.3-    080922 349  0.1+  0.2+    081005 B49  0.1+  0.4-
080829 H45  0.0   0.3-    080922 349  0.3+  0.1+    081005 B49  0.1+  0.4-
080829 151  0.9-  0.8+    080922 349  0.4+  0.3+    081005 B49  0.2+  0.3-
080829 151  0.9-  0.3+    080923 704  1.2-  0.3-    081006 691 (2.4-  0.4-)
080829 185  0.9+  0.6+    080923 704  1.0-  1.0-    081006 691 (2.3-  0.8-)
080829 151  0.8-  0.0     080923 704  0.4-  1.1-    081006 691 (2.5-  1.1-)
080829 185  0.7+  0.8+    080923 704  1.1-  0.4-    081006 B26  0.2-  0.1-
080830 B51  1.0+  1.0+    080923 704  0.5-  0.3-    081008 945  0.6+  0.8+
080830 122  0.2+  0.1+    080924 A77  0.0   0.1+    081008 945  0.6+  0.5+
080830 122  0.3+  0.0     080924 A77  0.0   0.1+    081009 B67  1.8-  0.1+
080830 122  0.2+  0.1-    080924 A77  0.1-  0.1-    081009 B67  1.8-  0.1+
080830 122  0.4+  0.1+    080924 B42  1.4+  1.0+    081009 B67  1.1-  1.3-
080830 213  0.2+  1.0+    080924 B42  1.6+  1.2+    081009 H10  0.2+  0.1-
080830 213  0.2+  0.9+    080924 B42  1.3+  0.5+    081009 H10  0.3+  0.1-
080830 213  0.2+  0.2+    080924 B42  0.6+  0.3+    081009 H10  0.1+  0.3-
080831 246  0.2-  0.0     080925 E85  0.3+  0.0     081009 945  0.4+  0.7+
080831 246  0.4-  0.2+    080925 E85  0.0   0.3-    081009 945  0.5+  0.4+
080831 246  0.3-  0.1+    080925 E85  0.5+  0.0     081009 945  0.2+  1.0+
080831 246  0.2-  0.1+    080926 H36  0.3+  0.1-    081009 945  0.2+  0.8+
080831 246  0.4-  0.2+    080926 H36  0.5+  0.1-    081009 945  0.4-  0.8+
080831 246  0.0   0.0     080926 H36  0.5+  0.2-    081010 J59  0.1-  0.8-
080831 J95  0.2+  0.4-    080926 H36  0.3+  0.2-    081010 J59  0.5-  0.2-
080831 J51  0.0   0.4+    080926 185  0.4-  0.4+    081010 J59  0.9-  0.3-
080831 J51  0.2+  0.3+    080926 185  0.4-  0.2+    081010 691 (2.7-  0.5-)
080831 J95  0.0   0.4-    080927 J87  0.5+  0.0     081010 691  2.0-  0.4-
080831 J51  0.4+  0.1+    080927 J87  0.6+  0.0     081010 691 (3.2-  1.2-)
080901 J40  1.1-  0.2-    080927 J87  0.5+  0.0     081010 629  0.4-  0.6+
080901 J40  0.4-  0.5-    080927 H45  0.4+  0.2-    081010 629  0.1+  0.2+
080901 J40  0.4-  0.4+    080927 H45  0.5+  0.5-    081011 118  0.3+  0.2-
080901 J40  0.4+  0.8+    080927 H45  0.5+  0.1-    081011 118  0.7+  0.2-
080901 J47  0.7-  0.0     080927 H45  0.4+  0.0     081011 118  0.2+  0.2-
080901 J47  1.2-  0.3-    080927 H45  0.6+  0.1-    081011 232  0.0   0.4-
080901 J47  0.5-  0.1+    080927 H45  0.4+  0.1+    081011 232  0.2-  0.3-
080901 J47  1.2-  0.3+    080927 108 (2.2-  1.6+)   081011 945  0.2+  0.3+
080901 J47  1.2-  0.2-    080927 108  0.4+  1.6+    081011 945  0.2+  0.5+
080901 118  0.3-  0.2-    080927 108 (5.8+  0.9+)   081011 232  0.0   0.4-
080901 118  0.2+  0.2-    080927 108 (0.1-  2.9+)   081011 945  0.2+  0.4+
080901 H36  0.2+  0.3-    080927 J38  0.1-  0.1+    081011 945  0.1+  0.1+
080901 H36  0.2+  0.2-    080927 J38  0.1+  0.5+    081011 945  0.2-  0.4+
080901 H36  0.1+  0.2-    080927 213  0.2+  0.4+    081011 900  0.0   0.4-
080901 H36  0.2+  0.4-    080928 J38  0.1-  0.7+    081011 900  0.1+  0.2-
080902 673  0.5+  0.2+    080928 213  0.3+  0.4+    081013 585  0.5+  0.1+
080902 673  0.8+  0.3+    080928 J51  0.3-  0.1+    081013 585  0.9+  0.0
080902 673  0.8+  0.3+    080928 J51  0.3-  0.1+    081013 585  0.3+  0.1-
080902 673  0.7+  0.3+    080928 213  0.3+  0.6+    081013 585  0.4+  0.3-
080902 104  0.0   0.9-    080928 J51  0.2-  0.1+    081013 585  0.4+  0.1+
080902 104  0.2-  0.2-    080928 J52  0.3-  0.8-    081013 585  1.0+  0.2-
080902 104  0.3+  0.2-    080928 J52  0.3-  0.3-    081013 585  1.0+  0.2+
080903 152  0.5+  0.7-    080928 J52  0.4-  0.5-    081017 349  0.2-  0.3-
080903 349  0.5-  0.1-    080928 945  1.3+  0.4+    081017 349  0.3-  0.5-
080903 349  0.7-  0.1+    080928 945  1.0+  0.0     081017 349  0.3-  0.3-
080903 349  0.8-  0.1-    080928 945  1.7+  1.3-    081017 B59  0.1-  0.7-
080903 104  0.4+  0.8+    080928 945  1.6+  0.3+    081018 900  0.2-  0.2-
080903 104  0.7+  0.9+    080928 945  0.6+  0.3+    081018 900  0.1-  0.2-
080903 104  1.1-  0.9-    080928 B37  0.2-  0.8+    081018 945  0.4+  0.5+
080905 372  0.1-  0.8+    080928 B37  0.4+  0.4+    081018 945  0.1-  0.4+
080906 A71  0.9+  0.0     080928 B37  1.0+  0.2-    081018 945  0.4+  0.5+
080906 A71  1.0+  0.3+    080928 B37  0.0   1.7+    081018 945  0.4+  0.5+
080906 A71  0.9+  0.0     080928 467  0.7+  0.2+    081018 945  0.2+  0.4+
080907 703  1.5-  0.7-    080928 467  0.8-  0.4-    081018 J38  0.4-  0.1-
080907 703 (2.3-  1.1-)   080928 467  0.5+  0.1+    081019 J38  0.6-  0.6-
080907 703  1.9-  0.4-    080928 467  0.4+  0.1-    081019 H45  0.1+  0.0
080907 703  1.8-  0.9-    080928 585  0.4-  0.9-    081019 H45  0.0   0.1-
080908 900  0.4+  0.1-    080928 585  0.4-  0.1-    081019 H45  0.1+  0.2-
080908 900  0.1-  0.1-    080928 585  0.5-  0.9-    081019 H45  0.2+  0.2-
080908 367  1.0-  0.1-    080929 585  0.5-  0.9+    081019 H45  0.0   0.2-
080908 367  0.2-  0.2-    080929 585  0.0   0.4-    081019 H45  0.0   0.3-
080908 367  0.9-  0.2-    080929 585 (2.0+  0.8+)   081019 945  0.0   0.2-
080909 585  0.2+  0.2-    080929 118  0.5+  0.1+    081019 945  0.0   0.4+
080909 585  0.7+  0.1+    080929 118  0.4+  0.0     081019 945  0.2+  0.2+
080909 585  0.3+  0.0     080929 118  0.5+  0.0     081019 945  0.5-  0.5+
080909 585  0.5+  0.0     080929 691  1.5-  0.8-    081019 945  0.2+  0.4+
080909 585  0.2+  0.1+    080929 691  1.4-  0.4-    081019 J38  0.6-  0.0
080909 585  0.5+  0.1-    080929 691  0.1+  0.3+    081019 J38  0.6-  0.0
080909 585  0.6+  0.0     080929 693  0.5+  0.4+    081019 J38  0.5-  0.1-
080909 585  0.3+  0.1+    080929 693  0.4+  0.4+    081020 G68  0.1+  0.5-
080909 215  0.1-  0.1+    080929 693  0.6+  0.5+    081020 G68  0.1+  0.4-
080909 215  0.1+  0.0     080929 B26  0.4+  0.2+    081020 G68  0.3+  0.2-
080909 215  0.4+  0.1-    080929 B26  0.1+  0.4+    081020 G68  0.3+  0.2-
080909 900  0.4+  0.1+    080929 B26  0.4+  0.1+

Brian G. Marsden             (C) Copyright 2008 MPC           M.P.E.C. 2008-U18

Read MPEC 2008-U17 Read MPEC 2008-U19


Our Web policy. Index to the CBAT/MPC/ICQ pages.

